Flag for Netherlands Weather past 2 weeks in Leiden, Netherlands

Now
61 °F

Scattered clouds.


Feels Like: 61 °F
Forecast: 54 / 62 °F
Wind: 13 mph from West

Location: Rotterdam Zestienhoven Airport

Current Time: Aug 23, 2014 at 6:10:40 PM

Latest Report: Aug 23, 2014 at 5:25 PM


Visibility: N/A

Pressure: 29.95 "Hg

Humidity: 59%

Dew point: 46 °F

Location of LeidenLocation

Historic Weather in Leiden — Graph

°F

Leiden temperature yesterday

Maximum temperature yesterday: 63 °F (at 5:25 PM)
Minimum temperature yesterday: 52 °F (at 9:25 PM)
Average temperature yesterday: 57 °F

Past Weeks' High & Low Weather Summary

 TemperatureHumidityPressure
High73 °F (Aug 9, 3:25 PM)100% (Aug 10, 4:55 PM)30.09 "Hg (Aug 10, 4:55 PM)
Low46 °F (Aug 21, 5:55 AM)44% (Aug 9, 3:25 PM)29.45 "Hg (Aug 10, 6:25 PM)
Average61 °F77%29.81 "Hg
* Reported Aug 8 4:25 PM — Aug 23 4:55 PM, Leiden, Weather by CustomWeather, © 2014

Note: Actual official high and low records may vary slightly from our data, if they occured in-between our weather recording intervals... More about our weather records

Advertising

Leiden weather history for previous 24 hours

 ConditionsComfort  
Time TempWeatherWind HumidityBarometerVisibility
4:55 PM
Aug 23
61 °FRefreshingly cool.14 mph59%29.95 "HgN/A
4:25 PM61 °FPassing clouds.15 mph59%29.95 "HgN/A
3:55 PM61 °FScattered clouds.14 mph59%29.92 "HgN/A
3:25 PM63 °FPartly sunny.16 mph59%29.92 "HgN/A
2:55 PM61 °FScattered clouds.14 mph63%29.92 "HgN/A
2:25 PM59 °FClear.15 mph63%29.92 "HgN/A
1:55 PM61 °FPassing clouds.15 mph59%29.92 "HgN/A
1:25 PM61 °FScattered clouds.15 mph63%29.92 "HgN/A
12:55 PM63 °FScattered clouds.16 mph68%29.92 "HgN/A
12:25 PM61 °FPassing clouds.13 mph68%29.92 "HgN/A
11:55 AM59 °FPassing clouds.6 mph77%29.89 "HgN/A
11:25 AM57 °FPassing clouds.8 mph88%29.89 "HgN/A
10:55 AM57 °FPassing clouds.6 mph82%29.89 "HgN/A
10:25 AM54 °FMostly cloudy.5 mph94%29.89 "HgN/A
9:55 AM52 °FMostly cloudy.5 mph94%29.89 "HgN/A
9:25 AM50 °FThunderstorms. Partly sunny.5 mph100%29.89 "HgN/A
8:55 AM50 °FStrong thunderstorms. Mostly cloudy.5 mph94%29.89 "Hg2 mi
8:25 AM55 °FThunderstorms. Partly sunny.7 mph82%29.86 "HgN/A
7:55 AM52 °FThunderstorms. Partly sunny.3 mph94%29.86 "HgN/A
7:25 AM50 °FClear.2 mph100%29.86 "HgN/A
6:55 AM50 °FPassing clouds.3 mph100%29.86 "HgN/A
6:25 AM52 °FPassing clouds.5 mph94%29.86 "HgN/A
5:55 AM54 °FPassing clouds.7 mph94%29.86 "HgN/A
5:25 AM55 °FPartly cloudy.8 mph94%29.86 "HgN/A
4:55 AM52 °FPassing clouds.5 mph100%29.86 "HgN/A
4:25 AM52 °FClear.6 mph100%29.86 "HgN/A
3:55 AM52 °FFog.2 mph100%29.86 "Hg3 mi
3:25 AM50 °FFog.1 mph100%29.86 "Hg1 mi
2:55 AM52 °FFog.2 mph100%29.89 "Hg1 mi
2:25 AM52 °FFog.2 mph100%29.89 "Hg1 mi
1:55 AM52 °FFog.3 mph100%29.89 "Hg2 mi
1:25 AM52 °FPassing clouds.3 mph100%29.89 "HgN/A
12:55 AM52 °FClear.2 mph100%29.89 "HgN/A
12:25 AM52 °FFog.2 mph94%29.89 "Hg2 mi
11:55 PM
Aug 22
52 °FFog.1 mph100%29.89 "Hg2 mi
11:25 PM52 °FClear.5 mph100%29.89 "HgN/A
10:55 PM52 °FClear.5 mph94%29.89 "HgN/A
10:25 PM52 °FClear.7 mph94%29.86 "Hg5 mi
9:55 PM52 °FClear.5 mph100%29.86 "HgN/A
9:25 PM52 °FClear.3 mph100%29.86 "Hg6 mi
8:55 PM54 °FPassing clouds.2 mph100%29.86 "HgN/A
8:25 PM55 °FScattered clouds.2 mph94%29.86 "HgN/A
7:55 PM55 °FDrizzle. Broken clouds.5 mph94%29.86 "HgN/A
7:25 PM55 °FMore clouds than sun.3 mph88%29.83 "HgN/A
6:55 PM59 °FBroken clouds.9 mph72%29.83 "HgN/A
6:25 PM61 °FBroken clouds.10 mph72%29.83 "HgN/A
Weather by CustomWeather, © 2014

See weather overviewHow to use our weather pages